Theta_e
320 319 319 320 320 320 320 320 320 320 320 320 319 318 317 316 316 315 316 318 315 312 313 315 316 317 314 321 326 328 317 314 317 318 319 325 331 334 332 337 343 347 351 346 344 345 345
321 320 320 321 321 320 320 320 321 320 319 319 319 319 320 319 318 316 315 317 315 312 313 315 317 314 316 325 326 327 324 314 319 320 319 323 332 330 326 328 340 347 349 349 348 345 346
323 321 321 321 321 321 320 319 319 319 318 318 318 318 318 319 320 318 315 316 315 315 317 318 315 312 318 324 328 325 324 319 319 319 319 325 326 325 324 331 342 347 351 350 349 348 346
322 322 321 321 321 321 321 320 320 319 319 318 318 318 318 318 319 320 315 316 316 320 319 316 316 315 320 320 327 325 321 319 318 320 318 321 322 323 324 344 347 348 349 351 350 347 346
320 322 323 323 322 322 322 322 322 321 321 320 320 319 319 318 318 320 315 317 319 323 322 317 318 324 325 321 325 327 320 319 320 320 318 320 321 324 326 343 346 350 348 349 352 348 348
320 321 322 322 323 323 323 322 322 322 321 321 321 321 320 319 318 319 316 316 321 323 323 321 319 324 323 326 327 327 322 317 317 316 319 321 323 327 329 337 343 343 345 345 347 350 348
321 322 322 323 323 324 324 324 323 322 321 320 320 320 320 319 318 318 316 319 324 326 324 328 326 324 326 326 325 326 324 322 321 320 323 324 326 328 329 332 336 340 345 345 343 341 344
317 318 317 317 317 317 317 319 319 317 314 314 317 318 320 318 318 317 318 323 321 320 323 323 322 324 324 325 326 325 324 323 323 323 323 323 324 326 327 328 332 337 341 342 335 341 341
312 313 313 312 310 309 310 311 311 312 312 313 314 316 317 318 318 318 319 322 319 319 324 324 323 323 324 324 326 324 324 324 325 324 324 322 323 324 324 327 331 334 338 339 338 342 342
308 308 309 309 310 311 312 312 313 313 313 314 315 316 316 317 320 318 321 319 318 320 325 325 324 323 324 325 326 325 323 325 325 325 323 323 323 322 322 326 330 334 334 333 335 340 338
307 308 309 310 311 312 312 313 312 313 313 313 316 318 318 318 317 320 320 318 318 320 325 324 326 324 324 325 326 325 323 324 326 325 326 325 324 323 322 323 327 331 332 331 334 335 339
312 312 312 311 311 311 310 310 312 313 313 314 315 319 318 317 316 318 318 318 320 325 324 328 327 326 326 325 325 324 323 324 324 325 325 325 324 324 323 324 324 328 332 337 338 337 342
312 311 311 310 309 308 309 311 313 312 313 315 318 319 317 317 320 318 317 320 325 326 323 328 328 327 327 327 325 326 326 326 326 325 325 324 325 325 325 326 325 324 329 339 338 340 340
311 310 308 307 306 309 312 313 313 315 316 318 318 316 317 319 320 321 319 323 326 324 323 324 323 325 327 328 327 325 327 327 326 326 326 325 325 325 326 327 326 325 330 336 339 338 337
310 309 308 307 308 311 313 313 313 316 317 318 316 317 320 319 319 321 321 325 325 325 323 323 324 326 328 327 326 327 326 327 327 326 326 326 325 325 326 327 327 328 331 334 333 333 335
310 309 308 308 308 311 312 313 314 316 317 317 316 320 321 319 321 321 323 323 324 322 323 322 323 324 329 328 327 327 327 327 327 326 326 326 326 326 326 326 326 328 329 332 331 332 333
310 309 308 307 306 311 312 313 316 317 317 316 316 323 322 318 318 322 326 324 323 322 322 323 323 324 324 325 326 328 328 328 327 327 327 327 326 327 326 327 328 328 329 329 329 330 331
311 309 308 308 307 311 312 314 316 317 317 316 318 323 321 322 324 323 325 324 320 322 322 323 323 323 323 323 324 326 328 328 325 326 327 327 327 330 327 327 327 328 328 329 330 331 331
311 310 308 309 308 307 311 313 315 316 316 316 320 322 323 322 328 325 324 324 323 324 323 323 323 322 321 323 324 324 325 324 324 325 327 327 327 330 330 327 327 327 328 330 329 329 332
311 310 309 307 309 307 310 312 313 315 316 316 321 325 325 324 324 326 327 326 326 323 324 324 325 325 324 324 323 324 325 324 324 324 323 326 328 329 331 330 329 329 329 329 329 330 330
311 310 309 308 307 309 308 310 311 313 314 316 320 323 323 327 326 325 325 325 326 326 324 325 327 326 326 327 325 325 324 324 326 326 325 326 329 329 330 330 329 329 329 329 330 330 332
311 310 308 307 307 307 309 307 310 312 314 319 320 321 320 318 319 321 321 325 325 325 326 326 326 326 327 328 327 329 328 328 330 327 326 326 329 330 331 328 328 329 329 328 329 329 330
310 310 310 308 306 306 307 306 306 312 314 316 316 317 318 319 319 319 319 319 320 322 320 321 323 325 326 326 325 325 326 327 328 329 330 328 327 331 331 328 328 330 329 329 329 329 329
308 309 309 308 306 305 305 305 307 310 312 312 314 315 318 318 319 319 319 320 321 321 322 321 321 323 322 322 322 323 323 324 326 328 327 331 329 331 331 330 332 330 329 329 328 329 329
307 307 307 306 305 304 304 305 307 308 310 311 311 314 316 318 316 317 317 318 318 319 320 319 319 320 321 322 325 326 326 327 328 329 328 329 329 330 334 332 331 329 329 329 329 329 330
306 306 305 304 304 304 304 305 308 307 308 308 310 311 313 315 316 316 317 318 320 319 319 319 320 320 321 324 325 330 329 326 328 327 327 329 331 329 331 332 333 331 329 328 328 331 330
306 305 304 304 304 305 304 303 304 305 306 308 311 310 311 314 313 314 316 317 317 318 321 318 321 320 324 326 327 328 329 328 330 330 327 325 327 328 332 332 330 329 330 328 330 330 327
305 304 304 304 304 304 304 305 305 305 306 308 311 309 310 313 312 312 313 314 315 316 317 316 319 323 325 328 329 328 329 329 330 330 329 329 329 328 330 331 330 327 330 330 330 329 328
304 304 303 303 303 304 304 305 306 305 307 307 310 310 309 310 311 312 313 314 314 314 314 316 319 321 321 327 328 329 333 331 331 331 328 329 328 329 329 330 333 328 329 328 330 330 332
Wind_Speed
15 15 15 16 16 17 16 15 15 15 15 16 16 16 16 15 15 15 14 13 10 9 8 8 8 6 2 4 2 4 8 15 17 15 10 12 11 7 3 1 2 3 4 4 6 9 7
14 13 14 15 16 16 17 16 15 15 15 16 16 16 16 16 16 15 14 14 11 8 8 8 7 4 3 7 5 5 7 14 13 12 10 10 7 5 4 2 3 2 4 7 4 7 4
13 12 12 13 15 16 16 17 16 16 16 17 17 18 18 18 18 18 16 14 10 7 7 6 4 3 6 2 6 4 9 12 12 10 10 9 3 6 1 3 3 7 7 6 5 5 3
13 12 11 12 14 15 16 17 17 17 17 17 17 18 19 20 20 19 17 12 7 6 4 3 1 2 3 7 6 5 11 11 14 9 7 7 4 4 6 4 6 6 6 4 5 7 4
13 12 11 12 13 14 15 16 17 18 18 18 18 18 19 20 20 18 14 8 5 6 4 3 1 2 5 8 6 9 10 9 13 10 6 8 4 6 6 11 8 7 5 3 6 8 2
14 13 13 14 15 15 16 17 18 19 19 20 20 19 19 20 20 15 12 6 4 5 5 4 5 4 6 9 9 12 11 12 12 13 8 9 9 10 10 10 9 4 7 5 0 8 9
15 14 14 15 16 18 18 19 19 20 20 21 20 20 19 19 20 9 9 5 4 3 6 9 1 2 9 8 8 13 14 12 13 16 12 16 11 15 14 14 8 5 4 4 6 4 6
17 17 17 17 17 19 20 20 20 20 20 20 20 20 18 17 17 4 8 2 2 3 10 13 17 16 10 6 10 14 17 15 14 14 15 9 16 16 3 4 10 10 9 5 2 1 7
16 17 17 18 18 19 20 20 19 19 19 20 20 20 17 15 9 10 6 5 4 8 8 6 11 16 15 15 12 17 23 19 15 15 15 16 5 11 9 13 13 13 13 5 5 2 8
16 16 17 18 19 21 21 20 19 19 19 18 19 19 17 14 5 11 1 5 7 5 5 9 7 8 14 14 14 12 24 18 7 13 12 13 12 7 16 18 15 15 12 9 7 7 6
17 18 19 20 22 24 25 24 22 20 19 17 17 18 16 13 12 6 7 8 7 1 5 4 7 6 12 18 14 14 22 17 13 11 8 10 11 15 15 15 17 16 12 8 9 11 7
19 19 20 21 21 21 20 20 18 18 20 19 17 19 16 15 11 7 3 1 1 6 6 5 7 10 14 21 6 15 19 16 10 10 12 16 5 8 16 11 16 17 10 7 6 7 9
19 21 21 21 20 19 18 17 18 18 18 19 17 16 16 12 4 7 5 3 6 6 3 5 4 10 17 13 11 14 17 18 12 12 13 14 15 13 9 12 8 13 16 10 10 9 9
21 21 21 19 19 20 19 19 20 20 19 18 17 15 11 5 4 4 7 7 9 2 4 2 2 6 15 12 15 12 16 17 19 14 9 11 14 19 13 17 10 19 20 11 10 9 8
20 20 20 19 19 19 19 20 21 21 20 20 17 8 6 10 7 8 11 11 3 4 3 4 6 8 13 14 7 15 15 16 15 16 14 8 13 16 9 12 12 16 16 16 14 2 8
20 20 19 19 19 18 19 20 20 19 19 19 14 1 5 7 5 8 9 14 1 2 5 4 8 2 8 16 14 12 17 14 16 16 19 7 8 14 12 8 8 10 18 10 9 13 11
21 21 19 19 19 17 18 19 20 20 19 16 4 4 2 5 6 8 8 8 4 6 4 3 2 4 3 4 10 15 11 11 9 12 19 15 10 11 9 14 15 9 9 10 10 5 11
19 20 20 18 19 15 17 18 19 20 19 15 3 3 2 3 6 3 6 2 1 7 5 4 5 6 7 4 7 8 14 11 2 8 15 19 11 11 19 5 9 13 19 17 11 14 11
20 19 18 17 19 15 15 16 17 18 20 18 7 3 3 1 5 5 3 5 5 6 7 6 9 5 2 6 4 7 8 3 4 8 5 14 11 10 9 8 7 15 15 11 13 12 8
20 20 19 16 19 19 15 15 15 15 15 14 5 3 3 3 2 6 3 5 6 5 6 5 6 6 10 13 12 8 5 1 4 8 5 5 18 16 11 13 15 17 15 15 13 10 11
19 19 19 17 15 19 17 14 14 13 12 8 3 2 3 1 4 4 5 2 5 6 6 5 5 8 5 8 11 15 16 10 14 3 6 13 16 12 18 9 8 16 16 14 16 15 12
20 19 18 17 13 14 16 15 10 10 8 4 5 5 3 8 6 7 5 8 9 6 6 10 8 8 7 10 10 12 9 10 6 2 6 10 13 15 14 12 13 12 10 13 15 15 10
20 20 19 18 15 13 12 14 14 7 5 2 4 4 5 2 5 5 5 5 4 1 7 11 11 9 12 12 11 13 14 14 13 13 9 7 12 9 15 12 11 13 14 14 15 13 13
20 21 22 18 15 13 12 11 10 9 4 2 3 3 6 7 5 6 4 5 7 9 12 12 11 11 9 11 20 22 25 24 23 19 16 8 8 11 8 9 15 4 2 9 14 14 13
19 20 20 16 12 10 10 8 6 8 5 3 2 1 4 7 7 9 12 10 10 10 12 14 15 16 12 13 10 13 13 17 17 17 15 17 8 8 7 14 7 8 6 8 10 11 11
17 19 16 14 9 8 8 7 8 9 6 4 5 4 2 5 1 7 7 6 8 8 9 10 8 9 10 8 9 13 11 12 12 7 10 13 12 5 10 17 19 9 8 7 6 10 10
14 15 13 13 12 11 9 8 7 8 4 4 4 5 5 8 11 10 8 6 4 4 6 7 3 5 8 9 10 12 13 12 16 16 10 8 8 14 11 12 8 5 11 12 11 3 8
13 12 11 11 13 11 9 8 7 5 6 3 4 7 7 8 19 19 18 17 11 10 7 6 8 6 7 8 7 7 9 11 14 12 10 10 9 9 12 14 9 15 14 12 4 6 7
11 13 11 11 12 12 8 7 8 5 6 4 5 6 9 13 16 17 18 16 18 15 12 7 9 4 4 4 3 3 4 6 11 11 3 9 6 8 9 8 5 24 8 18 5 11 9
Wind_Direction
28 32 32 31 28 24 21 18 17 15 15 12 9 5 360 355 348 340 332 325 317 302 291 297 302 300 272 232 169 155 153 174 184 188 194 196 203 224 269 39 193 217 114 166 179 166 130
22 24 25 24 22 21 21 18 15 13 12 10 7 2 358 353 346 338 329 322 315 302 290 294 297 276 203 225 189 164 155 173 180 186 202 205 230 231 280 277 312 45 117 138 162 204 204
14 15 16 15 14 14 14 14 12 9 8 7 5 2 357 350 343 336 329 322 312 303 292 289 287 243 221 46 184 168 168 172 183 191 200 195 199 233 228 185 151 171 131 145 148 156 163
1 2 360 1 1 1 2 2 2 1 359 357 356 355 353 348 341 335 329 323 316 311 296 271 254 172 222 210 182 164 172 180 186 192 175 193 218 254 250 144 168 207 233 180 145 179 155
349 349 345 346 346 347 348 349 349 348 348 345 344 344 345 343 343 337 333 325 308 310 268 246 268 179 166 193 190 186 169 182 181 184 184 173 198 235 193 226 203 204 218 158 154 205 175
343 343 340 337 336 336 336 337 339 338 338 336 335 334 337 338 341 337 337 319 299 298 259 256 244 236 205 198 179 172 172 159 165 168 168 193 209 217 220 226 224 197 230 169 105 178 219
342 340 337 333 331 330 329 328 330 331 331 330 329 328 331 335 337 331 338 328 300 237 235 240 18 279 145 159 159 174 169 164 163 183 194 200 215 217 211 224 297 298 254 253 103 131 242
343 341 343 343 338 333 331 329 329 329 329 327 325 325 329 334 339 349 337 310 53 319 292 256 244 234 215 184 178 181 180 188 192 201 207 179 225 224 259 235 240 245 237 205 125 69 244
345 343 340 339 338 336 334 329 328 330 331 330 325 324 326 335 339 349 325 201 320 338 264 252 227 227 209 201 211 187 188 201 202 210 206 228 185 237 208 218 231 235 249 194 300 164 238
340 338 335 334 335 334 335 328 325 328 329 328 326 325 326 336 2 333 302 211 316 334 269 153 197 203 186 190 217 204 192 191 203 216 214 236 225 202 221 232 226 241 220 262 265 266 302
342 340 336 335 336 335 333 330 329 332 330 327 325 321 324 327 310 321 242 254 307 260 272 121 142 166 170 189 127 183 189 203 225 208 215 213 217 218 228 232 226 246 263 259 248 265 293
342 340 336 335 332 331 327 322 325 328 329 328 327 320 321 318 311 278 193 230 200 229 234 146 144 177 171 201 180 148 183 213 239 230 219 260 181 236 220 220 229 232 224 224 246 263 239
343 342 339 334 332 333 334 337 337 335 330 328 328 319 313 299 262 235 226 200 221 248 117 144 175 181 193 182 168 175 189 196 205 207 217 210 221 224 230 221 211 207 213 212 217 200 242
344 343 340 336 337 341 348 347 344 343 337 332 331 326 311 286 244 225 182 211 235 11 247 94 223 220 209 192 206 190 194 207 212 227 274 211 203 216 195 230 190 209 219 225 206 219 210
340 341 342 343 344 348 350 347 345 345 342 335 338 346 349 308 259 199 200 216 238 254 346 287 243 232 200 213 232 204 214 215 202 216 237 211 237 178 205 206 231 192 232 247 281 212 286
342 345 345 346 345 350 350 348 345 346 345 338 343 129 358 15 148 165 219 238 243 284 304 256 260 280 234 199 199 205 210 221 228 208 229 233 256 202 179 192 207 257 214 208 232 261 236
345 346 347 343 345 348 349 349 347 348 350 345 359 234 344 52 122 201 229 230 205 208 305 292 254 263 255 230 246 215 214 214 216 209 215 230 235 171 173 210 195 191 203 233 275 265 261
341 342 344 341 340 344 345 348 349 351 354 6 348 234 261 25 225 248 243 221 228 231 229 258 277 277 274 307 260 237 229 230 243 190 202 211 220 222 206 172 264 245 215 209 224 210 238
337 336 337 336 336 337 341 346 350 355 359 3 333 300 296 299 261 203 155 220 260 244 243 253 254 233 267 266 263 241 257 298 267 225 228 188 228 219 213 189 208 226 228 238 233 258 230
333 332 331 331 335 339 337 341 344 350 357 358 320 258 169 220 281 289 268 232 241 201 259 271 291 260 258 252 247 264 250 7 315 304 332 256 244 224 226 218 185 205 204 218 230 219 225
330 329 325 326 328 334 336 332 339 342 353 6 335 55 336 277 159 301 264 291 248 232 219 230 225 258 278 263 246 247 260 289 282 27 235 226 239 228 245 275 201 200 194 209 227 251 260
329 330 324 318 309 326 337 336 332 341 351 18 324 328 302 280 274 265 205 248 261 254 259 256 250 278 264 265 271 313 312 287 277 357 292 232 240 243 236 231 229 219 218 211 230 248 247
324 325 326 319 311 303 309 326 340 344 11 12 341 313 292 232 249 249 247 264 278 265 256 264 288 291 273 277 309 295 287 282 277 285 288 275 235 222 221 201 204 223 209 219 227 229 245
322 326 325 322 314 305 303 318 337 344 10 32 332 317 274 271 246 269 272 255 259 266 271 276 281 278 268 297 297 276 260 255 255 255 232 253 240 239 215 183 217 205 133 247 247 248 238
319 323 323 321 314 313 310 303 296 317 328 339 296 284 288 276 304 273 259 272 269 256 252 262 268 262 281 281 274 256 242 241 244 233 228 214 244 236 181 211 213 191 193 203 219 236 219
319 326 329 334 324 315 309 303 276 289 315 334 294 226 223 285 194 280 272 270 283 274 268 250 255 271 268 258 246 248 232 219 197 166 210 203 218 260 216 222 227 246 150 188 200 247 191
318 325 329 333 335 327 319 307 295 275 261 288 284 235 223 262 276 268 264 310 296 279 278 280 299 258 227 242 240 240 233 248 232 191 176 168 198 213 228 224 227 102 148 162 201 100 172
316 319 316 316 318 319 319 320 303 268 238 260 257 255 231 260 275 273 263 258 250 244 272 334 287 207 248 247 250 241 251 222 242 220 184 179 192 209 236 218 209 151 154 194 201 127 151
309 312 308 312 316 322 320 324 319 280 221 239 268 261 261 255 261 277 272 257 245 249 250 245 294 294 301 283 267 277 269 263 242 203 201 202 212 232 230 206 123 173 157 194 212 168 168